Tracking 19176 objects as of 28-May-2018
HD Live streaming from Space Station
objects crossing your sky now

OPS 9317 (IDSCS 7)

Track OPS 9317 (IDSCS 7) now!
OPS 9317 (IDSCS 7) is classified as:


NORAD ID: 2221
Int'l Code: 1966-053H
Perigee: 33,736.7 km
Apogee: 34,343.2 km
Inclination: 2.9 °
Period: 1,347.4 minutes
Semi major axis: 40410 km
RCS: 0.2512 m2 (medium)
Launch date: June 16, 1966
Source: United States (US)
Launch site: AIR FORCE EASTERN TEST RANGE (AFETR)
aabbcc
Your satellite tracking list
Your tracking list is empty




NASA's NSSDC Master Catalog

Two Line Element Set (TLE):
1  2221U 66053H   18147.40910814 -.00000089 +00000-0 +00000-0 0  9993
2  2221 002.9430 060.1742 0075045 099.6936 076.7342 01.06869674019578
Source of the keplerian elements: AFSPC